Silver Bay, MN

6:45 AM CDT on September 20, 2017 (GMT -0500)
Silver Bay Municipal

Weather History for KBFW - March, 2014

Change the Weather History Date:

Monday, March 24, 2014

  Actual Average Record
Temperature  
Mean Temperature 3 °F -  
Max Temperature 26 °F 35 °F 60 °F (2012)
Min Temperature -20 °F 16 °F -20 °F (2014)
Degree Days  
Heating Degree Days 62    
Moisture  
Dew Point -2 °F    
Average Humidity 68    
Maximum Humidity 93    
Minimum Humidity 40    
Precipitation  
Precipitation 0.00 in - - ()
Sea Level Pressure  
Sea Level Pressure 30.08 in    
Wind  
Wind Speed 3 mph (West)    
Max Wind Speed 13 mph    
Max Gust Speed 23 mph    
Visibility 10 miles    
Events Snow    
Averages and records for this station are not official NWS values.
T = Trace of Precipitation, MM = Missing Value Source: NWS Daily Summary

Daily Weather History Graph

Daily Weather History Graph

Search for Another Location

Airport or City:

Trip Planner

Search our weather history database for the weather conditions in past years. The results will help you decide how hot, cold, wet, or windy it might be!

Date:

Astronomy

Mar. 24, 2014 Rise Set
Actual Time 7:00 AM CDT 7:24 PM CDT
Civil Twilight 6:29 AM CDT 7:54 PM CDT
Nautical Twilight 5:53 AM CDT 8:31 PM CDT
Astronomical Twilight 5:16 AM CDT 9:08 PM CDT
Moon 2:53 AM CDT (3/24) 12:28 PM CDT (3/24)
Length of Visible Light 13h 24m
Length of Day
12h 23m
Last Quarter, 43% of the Moon is Illuminated
Mar 24
Last Quarter
Mar 30
New
Apr 7
First Quarter
Apr 15
Full
Apr 22
Last Quarter

Hourly Weather History & Observations

Time (CDT) Temp. Windchill Dew Point Humidity Pressure Visibility Wind Dir Wind Speed Gust Speed Precip Events Conditions
12:13 AM -7.6 °F - -11.2 °F 84% 30.24 in 10.0 mi Calm Calm - N/A   Clear
12:33 AM -9.4 °F - -13.0 °F 84% 30.24 in 10.0 mi Calm Calm - N/A   Clear
12:53 AM -9.4 °F - -13.0 °F 84% 30.24 in 10.0 mi Calm Calm - N/A   Clear
1:13 AM -11.2 °F - -14.8 °F 84% 30.23 in 10.0 mi Calm Calm - N/A   Clear
1:33 AM -11.2 °F - -14.8 °F 84% 30.23 in 10.0 mi Calm Calm - N/A   Clear
1:53 AM -14.8 °F - -16.6 °F 92% 30.23 in 10.0 mi Calm Calm - N/A   Clear
2:13 AM -14.8 °F - -16.6 °F 92% 30.23 in 10.0 mi Calm Calm - N/A   Clear
2:33 AM -14.8 °F - -18.4 °F 84% 30.22 in 10.0 mi Calm Calm - N/A   Clear
2:53 AM -13.0 °F - -16.6 °F 84% 30.21 in 10.0 mi Calm Calm - N/A   Clear
3:13 AM -14.8 °F - -18.4 °F 84% 30.21 in 10.0 mi Calm Calm - N/A   Clear
3:33 AM -16.6 °F - -20.2 °F 84% 30.20 in 10.0 mi Calm Calm - N/A   Clear
3:53 AM -13.0 °F - -16.6 °F 84% 30.20 in 10.0 mi Calm Calm - N/A   Clear
4:13 AM -16.6 °F - -20.2 °F 84% 30.20 in 10.0 mi Calm Calm - N/A   Clear
4:33 AM -16.6 °F - -20.2 °F 84% 30.19 in 10.0 mi Calm Calm - N/A   Clear
4:53 AM -18.4 °F - -20.2 °F 91% 30.19 in 10.0 mi Calm Calm - N/A   Clear
5:13 AM -16.6 °F - -20.2 °F 84% 30.19 in 10.0 mi Calm Calm - N/A   Clear
5:33 AM -16.6 °F - -20.2 °F 84% 30.18 in 10.0 mi Calm Calm - N/A   Clear
5:53 AM -18.4 °F - -22.0 °F 84% 30.17 in 10.0 mi Calm Calm - N/A   Clear
6:13 AM -20.2 °F - -25.6 °F 76% 30.17 in 10.0 mi Calm Calm - N/A   Clear
6:33 AM -20.2 °F - -25.6 °F 76% 30.17 in 10.0 mi Calm Calm - N/A   Clear
6:53 AM -16.6 °F - -18.4 °F 92% 30.17 in 10.0 mi Calm Calm - N/A   Clear
7:13 AM -18.4 °F - -23.8 °F 76% 30.17 in 10.0 mi Calm Calm - N/A   Clear
7:33 AM -18.4 °F - -23.8 °F 76% 30.16 in 10.0 mi Calm Calm - N/A   Clear
7:53 AM -18.4 °F - -23.8 °F 76% 30.16 in 10.0 mi Calm Calm - N/A   Clear
8:13 AM -11.2 °F - -14.8 °F 84% 30.15 in 7.0 mi Calm Calm - N/A   Clear
8:33 AM 3.2 °F -6.2 °F -0.4 °F 85% 30.14 in 10.0 mi West 4.6 mph - N/A   Clear
8:53 AM 6.8 °F -3.5 °F 1.4 °F 79% 30.13 in 10.0 mi West 5.8 mph - N/A   Clear
9:13 AM 8.6 °F -2.6 °F 1.4 °F 73% 30.13 in 10.0 mi West 6.9 mph - N/A   Clear
9:33 AM 10.4 °F -0.4 °F 3.2 °F 73% 30.12 in 10.0 mi West 6.9 mph - N/A   Clear
9:54 AM 12.2 °F 0.7 °F 5.0 °F 73% 30.12 in 10.0 mi West 8.1 mph - N/A   Clear
10:13 AM 14.0 °F 2.9 °F 3.2 °F 62% 30.11 in 10.0 mi West 8.1 mph 18.4 mph N/A   Clear
10:33 AM 17.6 °F 8.2 °F 3.2 °F 53% 30.10 in 10.0 mi West 6.9 mph - N/A   Clear
10:53 AM 19.4 °F 7.9 °F 3.2 °F 49% 30.10 in 10.0 mi West 10.4 mph - N/A   Clear
11:13 AM 19.4 °F 7.2 °F 3.2 °F 49% 30.10 in 10.0 mi West 11.5 mph 20.7 mph N/A   Clear
11:33 AM 21.2 °F 10.9 °F 3.2 °F 46% 30.08 in 7.0 mi WSW 9.2 mph 18.4 mph N/A   Clear
11:54 AM 21.2 °F 10.9 °F 5.0 °F 50% 30.08 in 10.0 mi West 9.2 mph 17.3 mph N/A Snow Light Snow
12:13 PM 21.2 °F 9.5 °F 5.0 °F 50% 30.07 in 10.0 mi WSW 11.5 mph 20.7 mph N/A Snow Light Snow
12:33 PM 24.8 °F 16.9 °F 6.8 °F 46% 30.06 in 10.0 mi WSW 6.9 mph - N/A   Clear
12:53 PM 24.8 °F 14.6 °F 6.8 °F 46% 30.05 in 10.0 mi WSW 10.4 mph 21.9 mph N/A   Clear
1:13 PM 24.8 °F 16.9 °F 6.8 °F 46% 30.04 in 10.0 mi West 6.9 mph - N/A   Clear
1:33 PM 24.8 °F 14.6 °F 5.0 °F 43% 30.03 in 10.0 mi West 10.4 mph 19.6 mph N/A   Clear
1:53 PM 26.6 °F 17.5 °F 5.0 °F 40% 30.02 in 10.0 mi WSW 9.2 mph 23.0 mph N/A   Clear
2:13 PM 24.8 °F 13.4 °F 5.0 °F 43% 30.02 in 10.0 mi West 12.7 mph 19.6 mph N/A   Clear
2:33 PM 24.8 °F 14.6 °F 5.0 °F 43% 30.01 in 10.0 mi West 10.4 mph 20.7 mph N/A   Clear
2:53 PM 26.6 °F 17.5 °F 6.8 °F 43% 30.00 in 10.0 mi WSW 9.2 mph 17.3 mph N/A   Clear
3:13 PM 26.6 °F 16.8 °F 5.0 °F 40% 30.00 in 10.0 mi West 10.4 mph 20.7 mph N/A   Clear
3:33 PM 26.6 °F 19.1 °F 6.8 °F 43% 29.99 in 10.0 mi West 6.9 mph - N/A   Clear
3:53 PM 26.6 °F 19.1 °F 6.8 °F 43% 29.98 in 10.0 mi WSW 6.9 mph 18.4 mph N/A   Clear
4:13 PM 26.6 °F 17.5 °F 6.8 °F 43% 29.97 in 10.0 mi WSW 9.2 mph 17.3 mph N/A   Clear
4:33 PM 26.6 °F 19.1 °F 6.8 °F 43% 29.96 in 10.0 mi West 6.9 mph - N/A   Clear
4:53 PM 26.6 °F - 6.8 °F 43% 29.95 in 10.0 mi Calm Calm - N/A   Clear
5:13 PM 24.8 °F 15.3 °F 6.8 °F 46% 29.95 in 10.0 mi WSW 9.2 mph 18.4 mph N/A   Clear
5:33 PM 24.8 °F 17.9 °F 8.6 °F 50% 29.95 in 10.0 mi WSW 5.8 mph - N/A   Clear
5:53 PM 21.2 °F 16.4 °F 10.4 °F 63% 29.95 in 10.0 mi WSW 3.5 mph - N/A   Clear
6:13 PM 21.2 °F 13.6 °F 12.2 °F 68% 29.95 in 7.0 mi West 5.8 mph - N/A Snow Light Snow
6:33 PM 21.2 °F 12.6 °F 10.4 °F 63% 29.95 in 7.0 mi West 6.9 mph 17.3 mph N/A Snow Light Snow
6:53 PM 21.2 °F 16.4 °F 10.4 °F 63% 29.94 in 10.0 mi WSW 3.5 mph - N/A   Clear
7:13 PM 21.2 °F 16.4 °F 10.4 °F 63% 29.94 in 10.0 mi WSW 3.5 mph - N/A   Clear
7:33 PM 19.4 °F 10.4 °F 12.2 °F 74% 29.94 in 10.0 mi WNW 6.9 mph - N/A   Clear
7:53 PM 17.6 °F 12.3 °F 15.8 °F 93% 29.94 in 1.8 mi WSW 3.5 mph - N/A Snow Light Snow
8:13 PM 17.6 °F 12.3 °F 12.2 °F 79% 29.95 in 10.0 mi West 3.5 mph - N/A   Clear
8:33 PM 17.6 °F 8.2 °F 10.4 °F 73% 29.95 in 10.0 mi WNW 6.9 mph - N/A   Clear
8:53 PM 17.6 °F - 12.2 °F 79% 29.96 in 10.0 mi Calm Calm - N/A   Clear
9:13 PM 17.6 °F 8.2 °F 12.2 °F 79% 29.96 in 3.0 mi WNW 6.9 mph - N/A Snow Light Snow
9:33 PM 15.8 °F 5.1 °F 10.4 °F 79% 29.96 in 10.0 mi WNW 8.1 mph - N/A   Clear
9:53 PM 15.8 °F 6.1 °F 10.4 °F 79% 29.96 in 7.0 mi WNW 6.9 mph - N/A Snow Light Snow
10:13 PM 14.0 °F 3.9 °F 8.6 °F 79% 29.96 in 10.0 mi West 6.9 mph - N/A   Clear
10:33 PM 14.0 °F 6.5 °F 6.8 °F 73% 29.97 in 10.0 mi West 4.6 mph - N/A   Clear
10:53 PM 12.2 °F 0.7 °F 3.2 °F 67% 29.98 in 10.0 mi West 8.1 mph - N/A   Clear
11:13 PM 10.4 °F -0.4 °F 1.4 °F 67% 29.99 in 10.0 mi WNW 6.9 mph - N/A   Clear
11:33 PM 10.4 °F 0.8 °F -0.4 °F 62% 29.99 in 10.0 mi WNW 5.8 mph - N/A   Clear
11:53 PM 10.4 °F 2.2 °F -0.4 °F 62% 29.99 in 10.0 mi WNW 4.6 mph - N/A   Clear